Miscellaneous Local Product
Issued by NWS Hastings, NE

Home | Current Version | Previous Version | Text Only | Print | Product List | Glossary Off
Versions: 1 2 3 4 5 6 7 8 9 10 11 12 13 14 15 16 17 18 19 20 21 22 23 24 25 26 27 28 29 30 31 32 33 34 35 36 37 38 39 40 41 42 43 44 45 46 47 48 49 50

000
AXUS43 KGID 212202
MISGRI

GID CWA HOURLY WEATHER ROUNDUP
NATIONAL WEATHER SERVICE HASTINGS NE
500 PM CDT SAT APR 21 2018

NOTE: "FAIR" INDICATES FEW OR NO CLOUDS BELOW 12,000 FEET WITH NO
SIGNIFICANT WEATHER AND/OR OBSTRUCTIONS TO VISIBILITY.

...SOUTH CENTRAL NEBRASKA...

CITY           SKY/WX    TMP DP  RH WIND       PRES   REMARKS
GRAND ISLAND   LGT RAIN  44  41  89 CALM      30.23F
KEARNEY        LGT RAIN  43  41  93 E13       30.22F
HASTINGS       CLOUDY    44  40  85 E10       30.22S
ORD            CLOUDY    46  38  73 NE3       30.23S
YORK             N/A     48  34  57 CALM      30.22F
AURORA         CLOUDY    45  42  88 CALM      30.22F
LEXINGTON      CLOUDY    46  38  76 NE10      30.21S
HOLDREGE       CLOUDY    43  40  90 NE9       30.20F
HEBRON         CLOUDY    48  42  79 E10       30.21R

...NEBRASKA PANHANDLE...

CITY           SKY/WX    TMP DP  RH WIND       PRES   REMARKS
CHADRON        CLOUDY    47  38  71 S10       30.18F
ALLIANCE       CLOUDY    41  37  86 S6        30.19F
SCOTTSBLUFF    CLOUDY    44  39  82 SE10      30.19S
SIDNEY         CLOUDY    41  33  73 CALM      30.20F

...WESTERN AND NORTH CENTRAL NEBRASKA...

CITY           SKY/WX    TMP DP  RH WIND       PRES   REMARKS
VALENTINE      CLOUDY    50  37  61 SE14      30.24S
AINSWORTH      CLOUDY    45  39  80 E5        30.25S
ONEILL         CLOUDY    48  36  61 E6        30.26S
BROKEN BOW     CLOUDY    45  37  73 E12       30.22S
IMPERIAL       CLOUDY    42  39  89 NE5       30.21S
NORTH PLATTE   CLOUDY    46  37  71 E7        30.21F
MCCOOK         CLOUDY    45  39  79 NE7       30.20R

...EASTERN NEBRASKA...

CITY           SKY/WX    TMP DP  RH WIND       PRES   REMARKS
NORFOLK        CLOUDY    51  34  52 NE6       30.22S
SO SIOUX CITY  CLOUDY    56  28  34 E8        30.25F
TEKAMAH        CLOUDY    56  27  32 E12       30.24F
COLUMBUS       CLOUDY    51  30  44 E8        30.24F
ALBION         CLOUDY    49  33  54 E5        30.25S
OMAHA EPPLEY   CLOUDY    55  31  39 CALM      30.24F
OFFUTT AFB     PTSUNNY   55  31  39 E3        30.23F
MILLARD        CLOUDY    55  30  39 CALM      30.24S
LINCOLN        LGT RAIN  49  39  68 E7        30.24S
NEBRASKA CITY  PTSUNNY   55  37  49 N13       30.19F
BEATRICE       CLOUDY    47  42  83 NE7       30.20S
FALLS CITY     PTSUNNY   53  41  63 N12       30.17F

...NORTHERN KANSAS...

CITY           SKY/WX    TMP DP  RH WIND       PRES   REMARKS
GOODLAND       CLOUDY    42  38  85 NE12      30.18R
HILL CITY      CLOUDY    46  43  89 NE8       30.18F
NORTON         CLOUDY    45  39  81 N9        30.19R
PHILLIPSBURG   CLOUDY    46  41  81 N7        30.20S
SMITH CENTER   CLOUDY    45  41  87 NE9       30.20S
BELOIT         CLOUDY    45  39  81 CALM      30.19S
HAYS           CLOUDY    45  43  93 E14       30.17R
RUSSELL        CLOUDY    45  45 100 E13       30.16R
CONCORDIA      CLOUDY    45  40  82 NE9       30.18R
SALINA         LGT RAIN  47  45  93 NE9       30.18R
TOPEKA         CLOUDY    53  44  71 NW9       30.15S



USA.gov is the U.S. government's official web portal to all federal, state and local government web resources and services.